Regional Weather Roundup
Issued by NWS San Angelo, TX

Home | Current Version | Previous Version | Text Only | Print | Product List | Glossary On
Versions: 1 2 3 4 5 6 7 8 9 10 11 12 13 14 15 16 17 18 19 20 21 22 23 24 25 26 27 28 29 30 31 32 33 34 35 36 37 38 39 40 41 42 43 44 45 46 47 48 49 50
000
ASUS44 KSJT 280802
RWRSJT
WEST CENTRAL TEXAS REGIONAL WEATHER ROUNDUP
NATIONAL WEATHER SERVICE SAN ANGELO TX
300 AM CDT FRI AUG 28 2015

NOTE: "FAIR" INDICATES FEW OR NO CLOUDS BELOW 12,000 FEET WITH NO
SIGNIFICANT WEATHER AND/OR OBSTRUCTIONS TO VISIBILITY.

TXZ049-054-064>066-071>073-076>078-098-099-113-114-127-128-139-140-
154-155-168>170-280900
...LOCATIONS ACROSS WEST CENTRAL TEXAS...

CITY           SKY/WX    TMP DP  RH WIND       PRES   REMARKS
SAN ANGELO     CLEAR     78  60  53 S8        30.01S
ABILENE        CLEAR     77  60  55 S10       29.99F
DYESS AFB      CLEAR     76  61  58 S10       29.98S
JUNCTION       CLEAR     76  60  57 SW5       30.03F
SWEETWATER     NOT AVBL
BROWNWOOD      NOT AVBL
COLEMAN        NOT AVBL
SONORA         NOT AVBL
OZONA          NOT AVBL
BRADY          NOT AVBL
$$

TEXAS PANHANDLE/OKLAHOMA PANHANDLE

CITY           SKY/WX    TMP DP  RH WIND       PRES   REMARKS
AMARILLO       CLOUDY    70  59  68 N12       30.06R
BORGER         MOCLDY    72  60  66 SW5       30.01F
CANADIAN       MOCLDY    79  57  46 CALM      29.98F
DALHART        CLOUDY    70  62  76 NE9       30.07F
DUMAS          LGT RAIN  67  62  83 CALM      30.06S
GUYMON         NOT AVBL
HEREFORD       NOT AVBL
PAMPA          NOT AVBL
PERRYTON       NOT AVBL
$$

SOUTHERN PANHANDLE/SOUTH PLAINS/ROLLING PLAINS

CITY           SKY/WX    TMP DP  RH WIND       PRES   REMARKS
LUBBOCK        PTCLDY    74  52  46 S8        30.03S
SNYDER         NOT AVBL
CHILDRESS      MOCLDY    81  62  52 S12       29.96S
SEMINOLE       NOT AVBL
$$

PERMIAN BASIN

CITY           SKY/WX    TMP DP  RH WIND       PRES   REMARKS
MIDLAND        CLEAR     78  55  44 S9        30.03F
ODESSA         PTCLDY    79  55  43 S14       30.04F
WINK           CLEAR     76  53  44 SE7       30.01F
$$

FAR WEST/SOUTHWEST MOUNTAINS/TRANS PECOS

CITY           SKY/WX    TMP DP  RH WIND       PRES   REMARKS
ALPINE         PTSUNNY   74  53  47 S10       30.19F
DRYDEN           N/A     78  57  48 VRB3      30.01F
EL PASO        PTCLDY    77  56  48 E3        30.06S
FORT STOCKTON  CLEAR     77  55  46 S13       30.03F
GUADALUPE PASS PTCLDY    74  46  36 SE7       30.20S
MARFA          MOCLDY    63  54  72 CALM      30.20S
PECOS          NOT AVBL
$$

DALLAS/FORT WORTH METROPLEX

CITY           SKY/WX    TMP DP  RH WIND       PRES   REMARKS
DFW AIRPORT    PTCLDY    74  62  66 SE5       29.99S
FTW MEACHAM    CLEAR     77  62  59 SE8       29.99F
DAL-EXECUTIVE  CLEAR     73  61  65 S5        29.99F
GRAND PRAIRIE  CLEAR     75  64  68 S5        30.01S
ADDISON        NOT AVBL
MESQUITE       SUNNY     68  64  86 SE3       30.00S
LANCASTER      SUNNY     70  60  71 CALM      30.01S
$$

NORTH CENTRAL TEXAS

CITY           SKY/WX    TMP DP  RH WIND       PRES   REMARKS
SHRMAN/DENISON SUNNY     75  65  70 SE12      30.00F
GAINESVILLE    NOT AVBL
BRIDGEPORT     NOT AVBL
DENTON         PTCLDY    73  62  68 SE5       29.99F
WAXAHACHIE     SUNNY     69  64  82 SE3       30.01F
GRANBURY       NOT AVBL
$$

WESTERN NORTH TEXAS

CITY           SKY/WX    TMP DP  RH WIND       PRES   REMARKS
WICHITA FALLS  PTCLDY    77  61  57 S15       29.95F
VERNON         PTSUNNY   82  53  36 S13       29.96R
BRECKENRIDGE   NOT AVBL
COMANCHE       CLEAR     70  60  69 S6        30.02S
$$

CENTRAL AND SOUTH CENTRAL TEXAS

CITY           SKY/WX    TMP DP  RH WIND       PRES   REMARKS
AUSTIN/BERGSTM CLEAR     67  62  84 SW3       29.99F
WACO           CLEAR     73  61  65 SE5       30.00S
HILLSBORO      NOT AVBL
TEMPLE         CLEAR     72  61  68 SE3       29.99F
KILLEEN-GRAY   NOT AVBL
FORT HOOD      CLEAR     74  61  64 S2        29.98F
GEORGETOWN     CLEAR     70  57  64 SW3       30.01S
LAGO VISTA     FAIR      78  58  50 SW8       30.02F
SAN MARCOS     CLEAR     70  57  64 CALM      30.01F
NEW BRAUNFELS  CLEAR     71  65  81 W5        29.99F
RANDOLPH AFB   CLEAR     75  64  67 SW5       30.00F
SAN ANTONIO    PTCLDY    77  63  61 SW5       30.01F
STINSON        CLEAR     73  64  73 W3        29.99F
PLEASANTON     NOT AVBL
LA GRANGE      NOT AVBL
GIDDINGS       NOT AVBL
$$

EAST TEXAS

CITY           SKY/WX    TMP DP  RH WIND       PRES   REMARKS
PARIS          CLEAR     68  59  73 E6        30.03R
CLARKSVILLE    NOT AVBL
TYLER          CLEAR     72  64  76 SE6       30.00F
LONGVIEW       CLEAR     69  65  86 CALM      30.01S
PALESTINE      SUNNY     74  64  71 E3        30.01S
NACOGDOCHES    CLEAR     70  63  78 E6        29.99F
$$

TEXAS HILL COUNTRY AND EDWARDS PLATEAU

CITY           SKY/WX    TMP DP  RH WIND       PRES   REMARKS
LLANO          NOT AVBL
HORSESHOE BAY  FAIR      76  60  56 S5        30.01S
KERRVILLE      CLEAR     74  64  69 S7        30.05F
FREDERICKSBRG  NOT AVBL
ROCKSPRINGS    NOT AVBL
HONDO          CLEAR     73  62  68 CALM      30.03F
UVALDE         NOT AVBL
DEL RIO        CLEAR     78  57  48 SE6       29.99R
$$

SOUTHEAST TEXAS

CITY           SKY/WX    TMP DP  RH WIND       PRES   REMARKS
COLLEGE STN    CLEAR     74  66  76 CALM      29.98F
CALDWELL       NOT AVBL
CROCKETT       NOT AVBL
BRENHAM        NOT AVBL
HUNTSVILLE     CLEAR     73  63  70 S3        29.99S
CONROE         CLEAR     68  65  90 CALM      29.99F
HOUSTON BUSH   PTCLDY    72  67  84 CALM      29.97F
HOUSTON HOBBY  PTCLDY    74  67  78 CALM      29.97F
PERLAND        CLEAR     73  68  84 CALM      29.98F
WHARTON        NOT AVBL
$$

THE UPPER TEXAS COAST

CITY           SKY/WX    TMP DP  RH WIND       PRES   REMARKS
ORANGE         NOT AVBL
PORT ARTHUR    CLEAR     71  68  90 N3        29.97F
GALVESTON      CLEAR     81  69  67 SW5       29.98F
ANGLETON       CLEAR     70  68  93 CALM      29.97F
BAY CITY       NOT AVBL
$$

TEXAS COASTAL BEND, RIO GRANDE PLAINS DEEP SOUTH TEXAS

CITY           SKY/WX    TMP DP  RH WIND       PRES   REMARKS
VICTORIA       CLEAR     71  68  90 CALM      29.98F
BEEVILLE       FAIR      72  69  90 SW5       29.98S
ROCKPORT       CLEAR     76  66  71 S6        29.97F
PORT ARANSAS   MOSUNNY   81  66  60 S5        29.97F
PORT LAVACA    MOSUNNY   73  69  87 S5        29.97F
CORPUS CHRISTI MOCLDY    72  65  78 S3        29.97F
KINGSVILLE NAS CLEAR     72  68  87 SW3       29.98F
COTULLA        CLEAR     74  63  68 SE5       30.00F
LAREDO         CLEAR     75  62  64 S8        30.02F
BROWNSVILLE    MOCLDY    75  70  84 CALM      29.97F
PORT ISABEL    MOCLDY    79  71  76 NE3       29.96F
HEBBRONVILLE   NOT AVBL
MCALLEN        CLEAR     75  69  81 CALM      29.99F
WESLACO        NOT AVBL
FALFURRIAS     NOT AVBL
EDINBURG       SUNNY     71  65  81 CALM      29.99S
$$



USA.gov is the U.S. government's official web portal to all federal, state and local government web resources and services.